This demonstration page uses our WeatherBlox Daily Observations layout. Learn more.

Left ArrowRight Arrow

36.17497, -115.13722

Hourly Observations for November 28, 2020

Temp ( °F °C ) Dew Point ( °F °C ) Humidity (%) Winds ( mph kmh ) Pressure ( in mb ) Visibility ( mi km ) Precip ( " mm )
12:53 am 00:53 Clear 41 5 15 -9.4 35 35 W 3 6 30.34 1027 10 16 0.00 0.00
1:53 am 01:53 Clear 39 3.9 14 -10 36 36 WNW 5 7 30.34 1027 10 16 0.00 0.00
2:53 am 02:53 Clear 38 3.3 16 -8.9 41 41 NW 5 7 30.34 1027 10 16 0.00 0.00
3:53 am 03:53 Clear 39 3.9 15 -9.4 38 38 NW 6 9 30.33 1027 10 16 0.00 0.00
4:53 am 04:53 Clear 37 2.8 15 -9.4 41 41 N 6 9 30.34 1028 10 16 0.00 0.00
5:53 am 05:53 Clear 36 2.2 13 -10.6 39 39 WNW 7 11 30.35 1028 10 16 0.00 0.00
6:53 am 06:53 Sunny 35 1.7 15 -9.4 44 44 NW 6 9 30.37 1028 10 16 0.00 0.00
7:53 am 07:53 Sunny 43 6.1 17 -8.3 35 35 NNW 3 6 30.37 1028 10 16 0.00 0.00
8:53 am 08:53 Sunny 48 8.9 16 -8.9 28 28 Calm 30.37 1029 10 16 0.00 0.00
9:53 am 09:53 Sunny 51 10.6 15 -9.4 24 24 Calm 30.38 1029 10 16 0.00 0.00
10:53 am 10:53 Sunny 54 12.2 14 -10 20 20 Calm 30.34 1027 10 16 0.00 0.00
11:53 am 11:53 Sunny 56 13.3 15 -9.4 20 20 Calm 30.30 1026 10 16 0.00 0.00
12:53 pm 12:53 Sunny 58 14.4 15 -9.4 18 18 E 5 7 30.27 1025 10 16 0.00 0.00
1:53 pm 13:53 Sunny 59 15 15 -9.4 18 18 Calm 30.25 1024 10 16 0.00 0.00
2:53 pm 14:53 Sunny 59 15 14 -10 17 17 SSE 3 6 30.24 1024 10 16 0.00 0.00
3:53 pm 15:53 Sunny 59 15 14 -10 17 17 SSE 3 6 30.22 1024 10 16 0.00 0.00
4:53 pm 16:53 Clear 57 13.9 15 -9.4 19 19 Calm 30.23 1024 10 16 0.00 0.00
5:53 pm 17:53 Clear 52 11.1 16 -8.9 24 24 W 5 7 30.24 1024 10 16 0.00 0.00
6:53 pm 18:53 Clear 50 10 19 -7.2 29 29 WNW 6 9 30.24 1024 10 16 0.00 0.00
7:53 pm 19:53 Clear 47 8.3 18 -7.8 31 31 NW 7 11 30.24 1024 10 16 0.00 0.00
8:53 pm 20:53 Clear 45 7.2 19 -7.2 35 35 WNW 6 9 30.24 1024 10 16 0.00 0.00
9:53 pm 21:53 Clear 45 7.2 19 -7.2 35 35 W 3 6 30.24 1024 10 16 0.00 0.00
10:53 pm 22:53 Clear 43 6.1 16 -8.9 34 34 Calm 30.23 1024 10 16 0.00 0.00
11:53 pm 23:53 Clear 42 5.6 17 -8.3 36 36 NW 5 7 30.23 1024 10 16 0.00 0.00

Powered by AerisWeather